Tracking 31011 objects as of 13-Jul-2025
HD Live streaming from Space Station
objects crossing your sky now

CZ-6A DEB

Track CZ-6A DEB now!
10-day predictions


NORAD ID: 55524
Int'l Code: 2022-151XW
Perigee: 813.5 km
Apogee: 890.1 km
Inclination: 98.8 °
Period: 101.8 minutes
Semi major axis: 7222 km
RCS: Unknown
Launch date: November 11, 2022
Source: People's Republic of China (PRC)
Launch site: Taiyaun Space Center, China (TSC)

Note: This is SATELLITE DEBRIS
Your satellite tracking list
Your tracking list is empty




NASA's NSSDC Master Catalog

Two Line Element Set (TLE):
1 55524U 22151XW  25193.47860920  .00001564  00000-0  83036-3 0  9997
2 55524  98.8430 196.3409 0053055 216.5676 143.1870 14.14315197131799
Source of the keplerian elements: AFSPC